Year,Month,Day,Hour,Minute,Value (Times are PST for temperature in C)
2021,06,25,00,00,19.20
2021,06,25,00,01,19.20
2021,06,25,00,02,19.20
2021,06,25,00,03,19.10
2021,06,25,00,04,19.10
2021,06,25,00,05,19.10
2021,06,25,00,06,19.10
2021,06,25,00,07,19.10
2021,06,25,00,08,19.00
2021,06,25,00,09,19.00
2021,06,25,00,10,19.00
2021,06,25,00,11,18.90
2021,06,25,00,12,18.90
2021,06,25,00,13,18.90
2021,06,25,00,14,18.90
2021,06,25,00,15,18.90
2021,06,25,00,16,18.80
2021,06,25,00,17,18.80
2021,06,25,00,18,18.80
2021,06,25,00,19,18.80
2021,06,25,00,20,18.80
2021,06,25,00,21,18.80
2021,06,25,00,22,18.80
2021,06,25,00,23,18.70
2021,06,25,00,24,18.70
2021,06,25,00,25,18.70
2021,06,25,00,26,18.70
2021,06,25,00,27,18.70
2021,06,25,00,28,18.70
2021,06,25,00,29,18.70
2021,06,25,00,30,18.60
2021,06,25,00,31,18.60
2021,06,25,00,32,18.60
2021,06,25,00,33,18.60
2021,06,25,00,34,18.60
2021,06,25,00,35,18.60
2021,06,25,00,36,18.60
2021,06,25,00,37,18.60
2021,06,25,00,38,18.60
2021,06,25,00,39,18.60
2021,06,25,00,40,18.60
2021,06,25,00,41,18.60
2021,06,25,00,42,18.60
2021,06,25,00,43,18.60
2021,06,25,00,44,18.60
2021,06,25,00,45,18.60
2021,06,25,00,46,18.60
2021,06,25,00,47,18.60
2021,06,25,00,48,18.60
2021,06,25,00,49,18.60
2021,06,25,00,50,18.60
2021,06,25,00,51,18.60
2021,06,25,00,52,18.60
2021,06,25,00,53,18.60
2021,06,25,00,54,18.60
2021,06,25,00,55,18.60
2021,06,25,00,56,18.60
2021,06,25,00,57,18.60
2021,06,25,00,58,18.60
2021,06,25,00,59,18.60
2021,06,25,01,00,18.60
2021,06,25,01,01,18.60
2021,06,25,01,02,18.60
2021,06,25,01,03,18.60
2021,06,25,01,04,18.60
2021,06,25,01,05,18.60
2021,06,25,01,06,18.50
2021,06,25,01,07,18.50
2021,06,25,01,08,18.50
2021,06,25,01,09,18.50
2021,06,25,01,10,18.40
2021,06,25,01,11,18.40
2021,06,25,01,12,18.40
2021,06,25,01,13,18.40
2021,06,25,01,14,18.40
2021,06,25,01,15,18.30
2021,06,25,01,16,18.30
2021,06,25,01,17,18.30
2021,06,25,01,18,18.30
2021,06,25,01,19,18.30
2021,06,25,01,20,18.30
2021,06,25,01,21,18.30
2021,06,25,01,22,18.30
2021,06,25,01,23,18.30
2021,06,25,01,24,18.30
2021,06,25,01,25,18.30
2021,06,25,01,26,18.20
2021,06,25,01,27,18.20
2021,06,25,01,28,18.20
2021,06,25,01,29,18.20
2021,06,25,01,30,18.20
2021,06,25,01,31,18.20
2021,06,25,01,32,18.20
2021,06,25,01,33,18.20
2021,06,25,01,34,18.20
2021,06,25,01,35,18.20
2021,06,25,01,36,18.20
2021,06,25,01,37,18.20
2021,06,25,01,38,18.20
2021,06,25,01,39,18.20
2021,06,25,01,40,18.20
2021,06,25,01,41,18.20
2021,06,25,01,42,18.20
2021,06,25,01,43,18.20
2021,06,25,01,44,18.20
2021,06,25,01,45,18.20
2021,06,25,01,46,18.20
2021,06,25,01,47,18.20
2021,06,25,01,48,18.20
2021,06,25,01,49,18.20
2021,06,25,01,50,18.20
2021,06,25,01,51,18.20
2021,06,25,01,52,18.20
2021,06,25,01,53,18.20
2021,06,25,01,54,18.20
2021,06,25,01,55,18.20
2021,06,25,01,56,18.20
2021,06,25,01,57,18.20
2021,06,25,01,58,18.20
2021,06,25,01,59,18.20
2021,06,25,02,00,18.20
2021,06,25,02,01,18.20
2021,06,25,02,02,18.30
2021,06,25,02,03,18.30
2021,06,25,02,04,18.30
2021,06,25,02,05,18.30
2021,06,25,02,06,18.30
2021,06,25,02,07,18.30
2021,06,25,02,08,18.30
2021,06,25,02,09,18.30
2021,06,25,02,10,18.30
2021,06,25,02,11,18.30
2021,06,25,02,12,18.30
2021,06,25,02,13,18.30
2021,06,25,02,14,18.30
2021,06,25,02,15,18.30
2021,06,25,02,16,18.30
2021,06,25,02,17,18.30
2021,06,25,02,18,18.30
2021,06,25,02,19,18.30
2021,06,25,02,20,18.30
2021,06,25,02,21,18.30
2021,06,25,02,22,18.30
2021,06,25,02,23,18.30
2021,06,25,02,24,18.30
2021,06,25,02,25,18.30
2021,06,25,02,26,18.30
2021,06,25,02,27,18.30
2021,06,25,02,28,18.30
2021,06,25,02,29,18.30
2021,06,25,02,30,18.30
2021,06,25,02,31,18.30
2021,06,25,02,32,18.30
2021,06,25,02,33,18.30
2021,06,25,02,34,18.30
2021,06,25,02,35,18.30
2021,06,25,02,36,18.30
2021,06,25,02,37,18.30
2021,06,25,02,38,18.30
2021,06,25,02,39,18.30
2021,06,25,02,40,18.30
2021,06,25,02,41,18.30
2021,06,25,02,42,18.30
2021,06,25,02,43,18.30
2021,06,25,02,44,18.30
2021,06,25,02,45,18.30
2021,06,25,02,46,18.30
2021,06,25,02,47,18.30
2021,06,25,02,48,18.30
2021,06,25,02,49,18.20
2021,06,25,02,50,18.20
2021,06,25,02,51,18.20
2021,06,25,02,52,18.20
2021,06,25,02,53,18.20
2021,06,25,02,54,18.20
2021,06,25,02,55,18.20
2021,06,25,02,56,18.20
2021,06,25,02,57,18.20
2021,06,25,02,58,18.20
2021,06,25,02,59,18.20
2021,06,25,03,00,18.20
2021,06,25,03,01,18.20
2021,06,25,03,02,18.20
2021,06,25,03,03,18.20
2021,06,25,03,04,18.20
2021,06,25,03,05,18.20
2021,06,25,03,06,18.20
2021,06,25,03,07,18.20
2021,06,25,03,08,18.20
2021,06,25,03,09,18.20
2021,06,25,03,10,18.20
2021,06,25,03,11,18.20
2021,06,25,03,12,18.20
2021,06,25,03,13,18.20
2021,06,25,03,14,18.20
2021,06,25,03,15,18.20
2021,06,25,03,16,18.10
2021,06,25,03,17,18.10
2021,06,25,03,18,18.10
2021,06,25,03,19,18.10
2021,06,25,03,20,18.10
2021,06,25,03,21,18.10
2021,06,25,03,22,18.10
2021,06,25,03,23,18.00
2021,06,25,03,24,18.00
2021,06,25,03,25,18.00
2021,06,25,03,26,18.00
2021,06,25,03,27,18.00
2021,06,25,03,28,17.90
2021,06,25,03,29,17.90
2021,06,25,03,30,17.90
2021,06,25,03,31,17.90
2021,06,25,03,32,17.90
2021,06,25,03,33,17.90
2021,06,25,03,34,17.90
2021,06,25,03,35,17.90
2021,06,25,03,36,17.90
2021,06,25,03,37,17.90
2021,06,25,03,38,17.80
2021,06,25,03,39,17.80
2021,06,25,03,40,17.80
2021,06,25,03,41,17.80
2021,06,25,03,42,17.80
2021,06,25,03,43,17.80
2021,06,25,03,44,17.80
2021,06,25,03,45,17.70
2021,06,25,03,46,17.70
2021,06,25,03,47,17.70
2021,06,25,03,48,17.70
2021,06,25,03,49,17.70
2021,06,25,03,50,17.70
2021,06,25,03,51,17.70
2021,06,25,03,52,17.70
2021,06,25,03,53,17.70
2021,06,25,03,54,17.70
2021,06,25,03,55,17.70
2021,06,25,03,56,17.70
2021,06,25,03,57,17.70
2021,06,25,03,58,17.70
2021,06,25,03,59,17.60
2021,06,25,04,00,17.60
2021,06,25,04,01,17.60
2021,06,25,04,02,17.50
2021,06,25,04,03,17.50
2021,06,25,04,04,17.40
2021,06,25,04,05,17.40
2021,06,25,04,06,17.40
2021,06,25,04,07,17.40
2021,06,25,04,08,17.40
2021,06,25,04,09,17.40
2021,06,25,04,10,17.40
2021,06,25,04,11,17.40
2021,06,25,04,12,17.40
2021,06,25,04,13,17.40
2021,06,25,04,14,17.40
2021,06,25,04,15,17.40
2021,06,25,04,16,17.40
2021,06,25,04,17,17.50
2021,06,25,04,18,17.50
2021,06,25,04,19,17.50
2021,06,25,04,20,17.50
2021,06,25,04,21,17.60
2021,06,25,04,22,17.60
2021,06,25,04,23,17.60
2021,06,25,04,24,17.60
2021,06,25,04,25,17.60
2021,06,25,04,26,17.60
2021,06,25,04,27,17.60
2021,06,25,04,28,17.60
2021,06,25,04,29,17.60
2021,06,25,04,30,17.60
2021,06,25,04,31,17.60
2021,06,25,04,32,17.60
2021,06,25,04,33,17.60
2021,06,25,04,34,17.60
2021,06,25,04,35,17.60
2021,06,25,04,36,17.60
2021,06,25,04,37,17.60
2021,06,25,04,38,17.60
2021,06,25,04,39,17.60
2021,06,25,04,40,17.60
2021,06,25,04,41,17.60
2021,06,25,04,42,17.60
2021,06,25,04,43,17.60
2021,06,25,04,44,17.60
2021,06,25,04,45,17.60
2021,06,25,04,46,17.60
2021,06,25,04,47,17.50
2021,06,25,04,48,17.50
2021,06,25,04,49,17.50
2021,06,25,04,50,17.40
2021,06,25,04,51,17.40
2021,06,25,04,52,17.40
2021,06,25,04,53,17.40
2021,06,25,04,54,17.30
2021,06,25,04,55,17.30
2021,06,25,04,56,17.30
2021,06,25,04,57,17.30
2021,06,25,04,58,17.20
2021,06,25,04,59,17.20
2021,06,25,05,00,17.20
2021,06,25,05,01,17.20
2021,06,25,05,02,17.20
2021,06,25,05,03,17.20
2021,06,25,05,04,17.20
2021,06,25,05,05,17.20
2021,06,25,05,06,17.20
2021,06,25,05,07,17.20
2021,06,25,05,08,17.20
2021,06,25,05,09,17.20
2021,06,25,05,10,17.20
2021,06,25,05,11,17.20
2021,06,25,05,12,17.20
2021,06,25,05,13,17.20
2021,06,25,05,14,17.10
2021,06,25,05,15,17.10
2021,06,25,05,16,17.10
2021,06,25,05,17,17.10
2021,06,25,05,18,17.10
2021,06,25,05,19,17.10
2021,06,25,05,20,17.00
2021,06,25,05,21,17.00
2021,06,25,05,22,17.00
2021,06,25,05,23,17.00
2021,06,25,05,24,17.00
2021,06,25,05,25,16.90
2021,06,25,05,26,16.90
2021,06,25,05,27,16.90
2021,06,25,05,28,16.90
2021,06,25,05,29,16.90
2021,06,25,05,30,16.90
2021,06,25,05,31,16.90
2021,06,25,05,32,16.90
2021,06,25,05,33,16.90
2021,06,25,05,34,16.90
2021,06,25,05,35,16.90
2021,06,25,05,36,16.90
2021,06,25,05,37,16.90
2021,06,25,05,38,16.90
2021,06,25,05,39,17.00
2021,06,25,05,40,16.90
2021,06,25,05,41,16.90
2021,06,25,05,42,16.90
2021,06,25,05,43,16.90
2021,06,25,05,44,16.90
2021,06,25,05,45,16.90
2021,06,25,05,46,16.90
2021,06,25,05,47,16.90
2021,06,25,05,48,16.90
2021,06,25,05,49,16.90
2021,06,25,05,50,16.90
2021,06,25,05,51,16.90
2021,06,25,05,52,16.90
2021,06,25,05,53,16.90
2021,06,25,05,54,16.90
2021,06,25,05,55,16.90
2021,06,25,05,56,16.90
2021,06,25,05,57,16.90
2021,06,25,05,58,16.90
2021,06,25,05,59,16.90
2021,06,25,06,00,16.90
2021,06,25,06,01,16.90
2021,06,25,06,02,16.80
2021,06,25,06,03,16.80
2021,06,25,06,04,16.80
2021,06,25,06,05,16.80
2021,06,25,06,06,16.80
2021,06,25,06,07,16.80
2021,06,25,06,08,16.80
2021,06,25,06,09,16.80
2021,06,25,06,10,16.80
2021,06,25,06,11,16.80
2021,06,25,06,12,16.80
2021,06,25,06,13,16.80
2021,06,25,06,14,16.80
2021,06,25,06,15,16.80
2021,06,25,06,16,16.80
2021,06,25,06,17,16.80
2021,06,25,06,18,16.70
2021,06,25,06,19,16.70
2021,06,25,06,20,16.80
2021,06,25,06,21,16.80
2021,06,25,06,22,16.80
2021,06,25,06,23,16.80
2021,06,25,06,24,16.80
2021,06,25,06,25,16.80
2021,06,25,06,26,16.90
2021,06,25,06,27,16.90
2021,06,25,06,28,16.90
2021,06,25,06,29,16.90
2021,06,25,06,30,17.00
2021,06,25,06,31,17.00
2021,06,25,06,32,17.00
2021,06,25,06,33,17.10
2021,06,25,06,34,17.10
2021,06,25,06,35,17.10
2021,06,25,06,36,17.20
2021,06,25,06,37,17.20
2021,06,25,06,38,17.20
2021,06,25,06,39,17.20
2021,06,25,06,40,17.30
2021,06,25,06,41,17.30
2021,06,25,06,42,17.30
2021,06,25,06,43,17.30
2021,06,25,06,44,17.30
2021,06,25,06,45,17.40
2021,06,25,06,46,17.40
2021,06,25,06,47,17.40
2021,06,25,06,48,17.40
2021,06,25,06,49,17.40
2021,06,25,06,50,17.40
2021,06,25,06,51,17.40
2021,06,25,06,52,17.40
2021,06,25,06,53,17.40
2021,06,25,06,54,17.50
2021,06,25,06,55,17.50
2021,06,25,06,56,17.50
2021,06,25,06,57,17.60
2021,06,25,06,58,17.60
2021,06,25,06,59,17.60
2021,06,25,07,00,17.70
2021,06,25,07,01,17.70
2021,06,25,07,02,17.70
2021,06,25,07,03,17.70
2021,06,25,07,04,17.80
2021,06,25,07,05,17.80
2021,06,25,07,06,17.80
2021,06,25,07,07,17.90
2021,06,25,07,08,17.90
2021,06,25,07,09,18.00
2021,06,25,07,10,18.10
2021,06,25,07,11,18.20
2021,06,25,07,12,18.30
2021,06,25,07,13,18.40
2021,06,25,07,14,18.40
2021,06,25,07,15,18.50
2021,06,25,07,16,18.60
2021,06,25,07,17,18.70
2021,06,25,07,18,18.70
2021,06,25,07,19,18.90
2021,06,25,07,20,19.00
2021,06,25,07,21,19.10
2021,06,25,07,22,19.20
2021,06,25,07,23,19.30
2021,06,25,07,24,19.40
2021,06,25,07,25,19.40
2021,06,25,07,26,19.50
2021,06,25,07,27,19.60
2021,06,25,07,28,19.80
2021,06,25,07,29,19.80
2021,06,25,07,30,19.90
2021,06,25,07,31,19.90
2021,06,25,07,32,19.90
2021,06,25,07,33,19.90
2021,06,25,07,34,19.90
2021,06,25,07,35,19.90
2021,06,25,07,36,19.90
2021,06,25,07,37,19.90
2021,06,25,07,38,19.90
2021,06,25,07,39,20.00
2021,06,25,07,40,20.10
2021,06,25,07,41,20.10
2021,06,25,07,42,20.20
2021,06,25,07,43,20.30
2021,06,25,07,44,20.40
2021,06,25,07,45,20.50
2021,06,25,07,46,20.60
2021,06,25,07,47,20.70
2021,06,25,07,48,20.70
2021,06,25,07,49,20.70
2021,06,25,07,50,20.70
2021,06,25,07,51,20.80
2021,06,25,07,52,20.80
2021,06,25,07,53,20.80
2021,06,25,07,54,20.80
2021,06,25,07,55,20.90
2021,06,25,07,56,20.90
2021,06,25,07,57,20.90
2021,06,25,07,58,20.90
2021,06,25,07,59,20.90
2021,06,25,08,00,20.90
2021,06,25,08,01,20.90
2021,06,25,08,02,20.90
2021,06,25,08,03,21.00
2021,06,25,08,04,21.10
2021,06,25,08,05,21.10
2021,06,25,08,06,21.10
2021,06,25,08,07,21.10
2021,06,25,08,08,21.10
2021,06,25,08,09,21.10
2021,06,25,08,10,21.20
2021,06,25,08,11,21.20
2021,06,25,08,12,21.30
2021,06,25,08,13,21.40
2021,06,25,08,14,21.50
2021,06,25,08,15,21.50
2021,06,25,08,16,21.60
2021,06,25,08,17,21.70
2021,06,25,08,18,21.70
2021,06,25,08,19,21.70
2021,06,25,08,20,21.70
2021,06,25,08,21,21.70
2021,06,25,08,22,21.70
2021,06,25,08,23,21.60
2021,06,25,08,24,21.60
2021,06,25,08,25,21.60
2021,06,25,08,26,21.60
2021,06,25,08,27,21.60
2021,06,25,08,28,21.60
2021,06,25,08,29,21.60
2021,06,25,08,30,21.60
2021,06,25,08,31,21.70
2021,06,25,08,32,21.70
2021,06,25,08,33,21.70
2021,06,25,08,34,21.70
2021,06,25,08,35,21.70
2021,06,25,08,36,21.70
2021,06,25,08,37,21.70
2021,06,25,08,38,21.70
2021,06,25,08,39,21.80
2021,06,25,08,40,21.80
2021,06,25,08,41,21.90
2021,06,25,08,42,21.90
2021,06,25,08,43,21.90
2021,06,25,08,44,21.90
2021,06,25,08,45,21.90
2021,06,25,08,46,21.90
2021,06,25,08,47,21.80
2021,06,25,08,48,21.80
2021,06,25,08,49,21.80
2021,06,25,08,50,21.90
2021,06,25,08,51,22.00
2021,06,25,08,52,22.10
2021,06,25,08,53,22.20
2021,06,25,08,54,22.30
2021,06,25,08,55,22.40
2021,06,25,08,56,22.40
2021,06,25,08,57,22.50
2021,06,25,08,58,22.50
2021,06,25,08,59,22.50
2021,06,25,09,00,22.60
2021,06,25,09,01,22.50
2021,06,25,09,02,22.40
2021,06,25,09,03,22.40
2021,06,25,09,04,22.40
2021,06,25,09,05,22.40
2021,06,25,09,06,22.50
2021,06,25,09,07,22.50
2021,06,25,09,08,22.60
2021,06,25,09,09,22.60
2021,06,25,09,10,22.70
2021,06,25,09,11,22.70
2021,06,25,09,12,22.80
2021,06,25,09,13,22.80
2021,06,25,09,14,22.80
2021,06,25,09,15,22.80
2021,06,25,09,16,22.90
2021,06,25,09,17,23.00
2021,06,25,09,18,23.10
2021,06,25,09,19,23.20
2021,06,25,09,20,23.20
2021,06,25,09,21,23.20
2021,06,25,09,22,23.20
2021,06,25,09,23,23.20
2021,06,25,09,24,23.20
2021,06,25,09,25,23.20
2021,06,25,09,26,23.30
2021,06,25,09,27,23.40
2021,06,25,09,28,23.40
2021,06,25,09,29,23.50
2021,06,25,09,30,23.50
2021,06,25,09,31,23.50
2021,06,25,09,32,23.40
2021,06,25,09,33,23.40
2021,06,25,09,34,23.40
2021,06,25,09,35,23.40
2021,06,25,09,36,23.50
2021,06,25,09,37,23.60
2021,06,25,09,38,23.60
2021,06,25,09,39,23.70
2021,06,25,09,40,23.70
2021,06,25,09,41,23.70
2021,06,25,09,42,23.70
2021,06,25,09,43,23.70
2021,06,25,09,44,23.80
2021,06,25,09,45,23.70
2021,06,25,09,46,23.60
2021,06,25,09,47,23.60
2021,06,25,09,48,23.80
2021,06,25,09,49,24.00
2021,06,25,09,50,24.10
2021,06,25,09,51,24.30
2021,06,25,09,52,24.40
2021,06,25,09,53,24.50
2021,06,25,09,54,24.60
2021,06,25,09,55,24.70
2021,06,25,09,56,24.80
2021,06,25,09,57,24.80
2021,06,25,09,58,24.70
2021,06,25,09,59,24.70
2021,06,25,10,00,24.80
2021,06,25,10,01,24.90
2021,06,25,10,02,25.00
2021,06,25,10,03,25.10
2021,06,25,10,04,25.20
2021,06,25,10,05,25.30
2021,06,25,10,06,25.30
2021,06,25,10,07,25.20
2021,06,25,10,08,25.10
2021,06,25,10,09,25.00
2021,06,25,10,10,24.90
2021,06,25,10,11,24.90
2021,06,25,10,12,24.90
2021,06,25,10,13,24.90
2021,06,25,10,14,25.00
2021,06,25,10,15,25.10
2021,06,25,10,16,25.10
2021,06,25,10,17,25.10
2021,06,25,10,18,25.10
2021,06,25,10,19,25.00
2021,06,25,10,20,25.00
2021,06,25,10,21,25.10
2021,06,25,10,22,25.20
2021,06,25,10,23,25.30
2021,06,25,10,24,25.40
2021,06,25,10,25,25.50
2021,06,25,10,26,25.50
2021,06,25,10,27,25.60
2021,06,25,10,28,25.70
2021,06,25,10,29,25.70
2021,06,25,10,30,25.70
2021,06,25,10,31,25.80
2021,06,25,10,32,25.80
2021,06,25,10,33,25.70
2021,06,25,10,34,25.50
2021,06,25,10,35,25.40
2021,06,25,10,36,25.40
2021,06,25,10,37,25.40
2021,06,25,10,38,25.50
2021,06,25,10,39,25.50
2021,06,25,10,40,25.60
2021,06,25,10,41,25.50
2021,06,25,10,42,25.50
2021,06,25,10,43,25.50
2021,06,25,10,44,25.40
2021,06,25,10,45,25.20
2021,06,25,10,46,25.00
2021,06,25,10,47,24.90
2021,06,25,10,48,24.90
2021,06,25,10,49,24.80
2021,06,25,10,50,24.80
2021,06,25,10,51,24.80
2021,06,25,10,52,24.80
2021,06,25,10,53,24.90
2021,06,25,10,54,24.90
2021,06,25,10,55,24.90
2021,06,25,10,56,24.90
2021,06,25,10,57,24.80
2021,06,25,10,58,24.80
2021,06,25,10,59,24.90
2021,06,25,11,00,25.00
2021,06,25,11,01,25.10
2021,06,25,11,02,25.30
2021,06,25,11,03,25.40
2021,06,25,11,04,25.40
2021,06,25,11,05,25.50
2021,06,25,11,06,25.70
2021,06,25,11,07,25.80
2021,06,25,11,08,25.70
2021,06,25,11,09,25.70
2021,06,25,11,10,25.80
2021,06,25,11,11,25.70
2021,06,25,11,12,25.80
2021,06,25,11,13,25.90
2021,06,25,11,14,25.90
2021,06,25,11,15,25.90
2021,06,25,11,16,26.00
2021,06,25,11,17,26.10
2021,06,25,11,18,26.10
2021,06,25,11,19,26.10
2021,06,25,11,20,26.10
2021,06,25,11,21,26.10
2021,06,25,11,22,26.20
2021,06,25,11,23,26.30
2021,06,25,11,24,26.30
2021,06,25,11,25,26.40
2021,06,25,11,26,26.50
2021,06,25,11,27,26.70
2021,06,25,11,28,26.80
2021,06,25,11,29,26.90
2021,06,25,11,30,26.90
2021,06,25,11,31,27.00
2021,06,25,11,32,27.10
2021,06,25,11,33,27.20
2021,06,25,11,34,27.40
2021,06,25,11,35,27.50
2021,06,25,11,36,27.60
2021,06,25,11,37,27.60
2021,06,25,11,38,27.70
2021,06,25,11,39,27.50
2021,06,25,11,40,27.40
2021,06,25,11,41,27.40
2021,06,25,11,42,27.50
2021,06,25,11,43,27.60
2021,06,25,11,44,27.80
2021,06,25,11,45,27.90
2021,06,25,11,46,28.10
2021,06,25,11,47,28.10
2021,06,25,11,48,28.10
2021,06,25,11,49,28.00
2021,06,25,11,50,28.10
2021,06,25,11,51,28.20
2021,06,25,11,52,28.30
2021,06,25,11,53,28.10
2021,06,25,11,54,27.80
2021,06,25,11,55,27.60
2021,06,25,11,56,27.50
2021,06,25,11,57,27.40
2021,06,25,11,58,27.40
2021,06,25,11,59,27.30
2021,06,25,12,00,27.30
2021,06,25,12,01,27.30
2021,06,25,12,02,27.20
2021,06,25,12,03,27.20
2021,06,25,12,04,27.20
2021,06,25,12,05,27.30
2021,06,25,12,06,27.40
2021,06,25,12,07,27.60
2021,06,25,12,08,27.70
2021,06,25,12,09,27.70
2021,06,25,12,10,27.70
2021,06,25,12,11,27.40
2021,06,25,12,12,27.20
2021,06,25,12,13,27.20
2021,06,25,12,14,27.20
2021,06,25,12,15,27.20
2021,06,25,12,16,27.20
2021,06,25,12,17,27.30
2021,06,25,12,18,27.20
2021,06,25,12,19,27.20
2021,06,25,12,20,27.30
2021,06,25,12,21,27.10
2021,06,25,12,22,26.90
2021,06,25,12,23,26.70
2021,06,25,12,24,26.60
2021,06,25,12,25,26.50
2021,06,25,12,26,26.60
2021,06,25,12,27,26.70
2021,06,25,12,28,26.70
2021,06,25,12,29,26.80
2021,06,25,12,30,26.90
2021,06,25,12,31,26.90
2021,06,25,12,32,26.90
2021,06,25,12,33,26.80
2021,06,25,12,34,26.80
2021,06,25,12,35,26.70
2021,06,25,12,36,26.60
2021,06,25,12,37,26.60
2021,06,25,12,38,26.70
2021,06,25,12,39,26.70
2021,06,25,12,40,26.70
2021,06,25,12,41,26.70
2021,06,25,12,42,26.70
2021,06,25,12,43,26.80
2021,06,25,12,44,26.80
2021,06,25,12,45,26.90
2021,06,25,12,46,27.10
2021,06,25,12,47,27.20
2021,06,25,12,48,27.10
2021,06,25,12,49,27.00
2021,06,25,12,50,26.70
2021,06,25,12,51,26.40
2021,06,25,12,52,26.30
2021,06,25,12,53,26.30
2021,06,25,12,54,26.40
2021,06,25,12,55,26.50
2021,06,25,12,56,26.70
2021,06,25,12,57,26.90
2021,06,25,12,58,27.10
2021,06,25,12,59,27.40
2021,06,25,13,00,27.60
2021,06,25,13,01,27.90
2021,06,25,13,02,28.00
2021,06,25,13,03,28.20
2021,06,25,13,04,28.30
2021,06,25,13,05,28.30
2021,06,25,13,06,28.30
2021,06,25,13,07,28.30
2021,06,25,13,08,28.10
2021,06,25,13,09,28.00
2021,06,25,13,10,27.90
2021,06,25,13,11,27.70
2021,06,25,13,12,27.70
2021,06,25,13,13,27.50
2021,06,25,13,14,27.30
2021,06,25,13,15,27.10
2021,06,25,13,16,26.90
2021,06,25,13,17,26.90
2021,06,25,13,18,26.80
2021,06,25,13,19,26.90
2021,06,25,13,20,27.00
2021,06,25,13,21,27.10
2021,06,25,13,22,27.20
2021,06,25,13,23,27.20
2021,06,25,13,24,27.20
2021,06,25,13,25,27.10
2021,06,25,13,26,27.10
2021,06,25,13,27,27.10
2021,06,25,13,28,27.20
2021,06,25,13,29,27.30
2021,06,25,13,30,27.30
2021,06,25,13,31,27.40
2021,06,25,13,32,27.60
2021,06,25,13,33,27.80
2021,06,25,13,34,27.90
2021,06,25,13,35,28.00
2021,06,25,13,36,28.10
2021,06,25,13,37,28.20
2021,06,25,13,38,28.30
2021,06,25,13,39,28.40
2021,06,25,13,40,28.60
2021,06,25,13,41,28.70
2021,06,25,13,42,28.80
2021,06,25,13,43,28.80
2021,06,25,13,44,28.90
2021,06,25,13,45,29.00
2021,06,25,13,46,29.10
2021,06,25,13,47,29.10
2021,06,25,13,48,29.10
2021,06,25,13,49,29.10
2021,06,25,13,50,29.10
2021,06,25,13,51,28.90
2021,06,25,13,52,28.80
2021,06,25,13,53,28.80
2021,06,25,13,54,28.70
2021,06,25,13,55,28.70
2021,06,25,13,56,28.60
2021,06,25,13,57,28.50
2021,06,25,13,58,28.70
2021,06,25,13,59,28.90
2021,06,25,14,00,29.10
2021,06,25,14,01,29.20
2021,06,25,14,02,29.20
2021,06,25,14,03,29.30
2021,06,25,14,04,29.50
2021,06,25,14,05,29.70
2021,06,25,14,06,29.70
2021,06,25,14,07,29.60
2021,06,25,14,08,29.60
2021,06,25,14,09,29.50
2021,06,25,14,10,29.40
2021,06,25,14,11,29.40
2021,06,25,14,12,29.20
2021,06,25,14,13,29.00
2021,06,25,14,14,29.10
2021,06,25,14,15,29.00
2021,06,25,14,16,29.10
2021,06,25,14,17,29.20
2021,06,25,14,18,29.30
2021,06,25,14,19,29.30
2021,06,25,14,20,29.30
2021,06,25,14,21,29.30
2021,06,25,14,22,29.30
2021,06,25,14,23,29.20
2021,06,25,14,24,29.10
2021,06,25,14,25,29.10
2021,06,25,14,26,29.10
2021,06,25,14,27,29.20
2021,06,25,14,28,29.30
2021,06,25,14,29,29.30
2021,06,25,14,30,29.30
2021,06,25,14,31,29.20
2021,06,25,14,32,29.20
2021,06,25,14,33,29.10
2021,06,25,14,34,29.10
2021,06,25,14,35,29.10
2021,06,25,14,36,29.00
2021,06,25,14,37,28.90
2021,06,25,14,38,28.80
2021,06,25,14,39,28.80
2021,06,25,14,40,28.90
2021,06,25,14,41,28.90
2021,06,25,14,42,28.90
2021,06,25,14,43,28.80
2021,06,25,14,44,28.90
2021,06,25,14,45,28.90
2021,06,25,14,46,28.80
2021,06,25,14,47,28.80
2021,06,25,14,48,28.70
2021,06,25,14,49,28.70
2021,06,25,14,50,28.60
2021,06,25,14,51,28.60
2021,06,25,14,52,28.50
2021,06,25,14,53,28.50
2021,06,25,14,54,28.50
2021,06,25,14,55,28.50
2021,06,25,14,56,28.60
2021,06,25,14,57,28.70
2021,06,25,14,58,28.70
2021,06,25,14,59,28.80
2021,06,25,15,00,28.90
2021,06,25,15,01,28.80
2021,06,25,15,02,28.80
2021,06,25,15,03,28.80
2021,06,25,15,04,28.90
2021,06,25,15,05,28.90
2021,06,25,15,06,29.00
2021,06,25,15,07,29.10
2021,06,25,15,08,29.20
2021,06,25,15,09,29.20
2021,06,25,15,10,29.20
2021,06,25,15,11,29.30
2021,06,25,15,12,29.20
2021,06,25,15,13,29.20
2021,06,25,15,14,29.30
2021,06,25,15,15,29.30
2021,06,25,15,16,29.30
2021,06,25,15,17,29.40
2021,06,25,15,18,29.50
2021,06,25,15,19,29.70
2021,06,25,15,20,29.80
2021,06,25,15,21,29.90
2021,06,25,15,22,29.90
2021,06,25,15,23,29.90
2021,06,25,15,24,29.90
2021,06,25,15,25,30.00
2021,06,25,15,26,30.10
2021,06,25,15,27,30.10
2021,06,25,15,28,30.00
2021,06,25,15,29,30.00
2021,06,25,15,30,30.20
2021,06,25,15,31,30.30
2021,06,25,15,32,30.30
2021,06,25,15,33,30.20
2021,06,25,15,34,30.10
2021,06,25,15,35,30.10
2021,06,25,15,36,30.10
2021,06,25,15,37,30.20
2021,06,25,15,38,30.20
2021,06,25,15,39,30.10
2021,06,25,15,40,30.10
2021,06,25,15,41,30.10
2021,06,25,15,42,30.00
2021,06,25,15,43,30.00
2021,06,25,15,44,29.90
2021,06,25,15,45,29.90
2021,06,25,15,46,29.80
2021,06,25,15,47,29.80
2021,06,25,15,48,29.80
2021,06,25,15,49,29.90
2021,06,25,15,50,29.90
2021,06,25,15,51,30.00
2021,06,25,15,52,30.10
2021,06,25,15,53,30.10
2021,06,25,15,54,30.20
2021,06,25,15,55,30.20
2021,06,25,15,56,30.20
2021,06,25,15,57,30.20
2021,06,25,15,58,30.20
2021,06,25,15,59,30.20
2021,06,25,16,00,30.30
2021,06,25,16,01,30.40
2021,06,25,16,02,30.50
2021,06,25,16,03,30.40
2021,06,25,16,04,30.40
2021,06,25,16,05,30.30
2021,06,25,16,06,30.20
2021,06,25,16,07,30.20
2021,06,25,16,08,30.20
2021,06,25,16,09,30.20
2021,06,25,16,10,30.20
2021,06,25,16,11,30.20
2021,06,25,16,12,30.10
2021,06,25,16,13,30.00
2021,06,25,16,14,29.90
2021,06,25,16,15,30.00
2021,06,25,16,16,30.00
2021,06,25,16,17,30.20
2021,06,25,16,18,30.30
2021,06,25,16,19,30.40
2021,06,25,16,20,30.50
2021,06,25,16,21,30.40
2021,06,25,16,22,30.50
2021,06,25,16,23,30.60
2021,06,25,16,24,30.70
2021,06,25,16,25,30.90
2021,06,25,16,26,31.00
2021,06,25,16,27,31.00
2021,06,25,16,28,30.90
2021,06,25,16,29,30.90
2021,06,25,16,30,30.80
2021,06,25,16,31,30.80
2021,06,25,16,32,30.80
2021,06,25,16,33,30.80
2021,06,25,16,34,30.80
2021,06,25,16,35,30.70
2021,06,25,16,36,30.70
2021,06,25,16,37,30.60
2021,06,25,16,38,30.50
2021,06,25,16,39,30.50
2021,06,25,16,40,30.40
2021,06,25,16,41,30.40
2021,06,25,16,42,30.50
2021,06,25,16,43,30.50
2021,06,25,16,44,30.60
2021,06,25,16,45,30.70
2021,06,25,16,46,30.80
2021,06,25,16,47,30.80
2021,06,25,16,48,30.90
2021,06,25,16,49,31.00
2021,06,25,16,50,31.10
2021,06,25,16,51,31.20
2021,06,25,16,52,31.30
2021,06,25,16,53,31.30
2021,06,25,16,54,31.40
2021,06,25,16,55,31.50
2021,06,25,16,56,31.60
2021,06,25,16,57,31.60
2021,06,25,16,58,31.70
2021,06,25,16,59,31.60
2021,06,25,17,00,31.60
2021,06,25,17,01,31.50
2021,06,25,17,02,31.40
2021,06,25,17,03,31.40
2021,06,25,17,04,31.30
2021,06,25,17,05,31.30
2021,06,25,17,06,31.30
2021,06,25,17,07,31.30
2021,06,25,17,08,31.30
2021,06,25,17,09,31.30
2021,06,25,17,10,31.40
2021,06,25,17,11,31.60
2021,06,25,17,12,31.70
2021,06,25,17,13,31.90
2021,06,25,17,14,31.90
2021,06,25,17,15,31.90
2021,06,25,17,16,31.90
2021,06,25,17,17,31.90
2021,06,25,17,18,31.90
2021,06,25,17,19,31.90